(81831) = 2000 KM46

Discovered at Socorro on 2000-05-27 by LINEAR.

Orbit

Orbit type: Main Belt

Note: WebGL enabled browser required.

epoch2023-09-13.0
epoch JD2460200.5
perihelion date2022-10-10.61563
perihelion JD2459863.11563
argument of perihelion (°)24.87208
ascending node (°)217.01999
inclination (°)13.14571
eccentricity0.1329382
perihelion distance (AU)2.3564905
Tisserand w.r.t. Jupiter3.3
ΔV w.r.t. Earth (km/sec)10.5
semimajor axis (AU)2.7177884
mean anomaly (°)74.21733
mean daily motion (°/day)0.21997860
aphelion distance (AU)3.079
period (years)4.48
P-vector [x]-0.47777013
P-vector [y]-0.83925121
P-vector [z]-0.25960184
Q-vector [x]0.86774709
Q-vector [y]-0.49691613
Q-vector [z]0.00945225
absolute magnitude15.21
phase slope0.15
uncertainty0
referenceMPEC 2024-A55
observations used1178
oppositions19
arc length (days)11833
first opposition used1991
last opposition used2023
residual rms (arc-secs)0.67
perturbers coarse indicatorM-v
perturbers precise indicator003Ek
first observation date used1991-06-16.0
last observation date used2023-11-08.0
computer nameMPCLINUX
JD of orbit computation2456966.767915
perihelion JD uncertainty (days)6.0942E-05
argument of perihelion uncertainty (°)1.9813E-05
ascending node uncertainty (°)1.4469E-05
inclination uncertainty (°)2.7851E-06
eccentricity uncertainty 3.0975E-08
perihelion distance uncertainty (AU)8.2309E-08
Minimum Orbit Intersection Distances (in AU)
for orbit epoch: 2460200.5, reference: E2024-A55
Mercury1.89839
Venus1.63445
Earth1.35042
Mars0.79836
Jupiter1.92434
Saturn6.02367
Uranus15.8477
Neptune26.7932

Observations

1209 total observations over interval: 1991 06 16.16905 – 2023 11 08.124914
These data are available for download (format description).

Date (UT) J2000 RA J2000 Dec Magn Location Ref
1991 06 16.16905 15 52 23.98 -08 19 51.8 19.8 V 691 – Steward Observatory, Kitt Peak-Spacewatch MPS 77900
1991 06 16.19345 15 52 23.12 -08 19 45.3 19.8 V 691 – Steward Observatory, Kitt Peak-Spacewatch MPS 77900
1991 06 16.21926 15 52 22.21 -08 19 38.0 19.5 V 691 – Steward Observatory, Kitt Peak-Spacewatch MPS 77900
2000 05 11.38795 16 40 59.75 -12 35 00.1 18.3   704 – Lincoln Laboratory ETS, New Mexico MPS 17078
2000 05 11.39952 16 40 59.25 -12 34 53.8 18.2   704 – Lincoln Laboratory ETS, New Mexico MPS 17078
2000 05 11.41104 16 40 58.81 -12 34 48.6 18.1   704 – Lincoln Laboratory ETS, New Mexico MPS 17078
2000 05 11.42257 16 40 58.27 -12 34 42.1 18.0   704 – Lincoln Laboratory ETS, New Mexico MPS 17078
2000 05 27.31512 16 28 43.32 -10 15 20.3 17.7   704 – Lincoln Laboratory ETS, New Mexico MPS 15989
2000 05 27.32873 16 28 42.62 -10 15 12.8 18.4   704 – Lincoln Laboratory ETS, New Mexico MPS 15989
2000 05 27.34230 16 28 41.95 -10 15 06.7 18.2   704 – Lincoln Laboratory ETS, New Mexico MPS 15989
2000 05 27.35588 16 28 41.22 -10 15 00.4 18.1   704 – Lincoln Laboratory ETS, New Mexico MPS 15989
2000 05 27.36941 16 28 40.49 -10 14 53.7 18.3   704 – Lincoln Laboratory ETS, New Mexico MPS 15989
2000 06 04.21866 16 22 12.32 -09 15 39.4 16.5   704 – Lincoln Laboratory ETS, New Mexico MPS 15989
2000 06 04.23226 16 22 11.57 -09 15 33.1 16.4   704 – Lincoln Laboratory ETS, New Mexico MPS 15989
2000 06 04.24629 16 22 10.88 -09 15 28.0 16.3   704 – Lincoln Laboratory ETS, New Mexico MPS 15989
2000 06 04.25997 16 22 10.20 -09 15 22.4 16.3   704 – Lincoln Laboratory ETS, New Mexico MPS 15990
2000 06 06.29809 16 20 32.77 -09 01 35.4 16.7   704 – Lincoln Laboratory ETS, New Mexico MPS 15990
2000 06 06.32290 16 20 31.61 -09 01 25.1 15.7   704 – Lincoln Laboratory ETS, New Mexico MPS 15990
2000 06 06.33542 16 20 30.93 -09 01 20.6 16.6   704 – Lincoln Laboratory ETS, New Mexico MPS 15990
2001 09 10.32695 00 28 28.57 +14 54 39.8 19.5   704 – Lincoln Laboratory ETS, New Mexico MPS 37624
2001 09 10.34063 00 28 27.96 +14 54 34.1 19.7   704 – Lincoln Laboratory ETS, New Mexico MPS 37624
2001 09 10.35426 00 28 27.40 +14 54 30.0 19.4   704 – Lincoln Laboratory ETS, New Mexico MPS 37624
2001 09 10.36791 00 28 26.81 +14 54 25.0 20.1   704 – Lincoln Laboratory ETS, New Mexico MPS 37624
2001 09 10.37211 00 28 26.68 +14 54 23.4 19.1 R 699 – Lowell Observatory-LONEOS MPS 37624
2001 09 10.38156 00 28 26.23 +14 54 19.9 19.6   704 – Lincoln Laboratory ETS, New Mexico MPS 37624
2001 09 10.39959 00 28 25.61 +14 54 13.5   699 – Lowell Observatory-LONEOS MPS 37624
2001 09 10.42714 00 28 24.38 +14 54 03.3   699 – Lowell Observatory-LONEOS MPS 37624
2001 09 10.45477 00 28 23.22 +14 53 53.0   699 – Lowell Observatory-LONEOS MPS 37624
2001 09 21.22501 00 20 36.86 +13 39 01.8 19.4 R 699 – Lowell Observatory-LONEOS MPS 37624
2001 09 21.24928 00 20 35.72 +13 38 50.8   699 – Lowell Observatory-LONEOS MPS 37624
2001 09 21.27340 00 20 34.57 +13 38 39.4   699 – Lowell Observatory-LONEOS MPS 37624
2001 09 21.29755 00 20 33.49 +13 38 27.6   699 – Lowell Observatory-LONEOS MPS 37624
2001 09 25.25901 00 17 30.75 +13 06 16.9 18.5   704 – Lincoln Laboratory ETS, New Mexico MPS 48780
2001 09 25.27400 00 17 30.04 +13 06 08.9 19.1   704 – Lincoln Laboratory ETS, New Mexico MPS 48780
2001 09 25.28902 00 17 29.36 +13 06 01.7 19.4   704 – Lincoln Laboratory ETS, New Mexico MPS 48780
2001 09 25.30401 00 17 28.63 +13 05 53.5 19.3   704 – Lincoln Laboratory ETS, New Mexico MPS 48780
2001 09 25.31899 00 17 27.89 +13 05 46.4 19.5   704 – Lincoln Laboratory ETS, New Mexico MPS 48780
2001 09 26.25059 00 16 44.83 +12 57 54.2 18.7   704 – Lincoln Laboratory ETS, New Mexico MPS 48780
2001 09 26.26581 00 16 44.08 +12 57 46.3 18.8   704 – Lincoln Laboratory ETS, New Mexico MPS 48780
2001 09 26.28104 00 16 43.35 +12 57 39.2 19.2   704 – Lincoln Laboratory ETS, New Mexico MPS 48780
2001 09 26.29624 00 16 42.65 +12 57 31.3 18.8   704 – Lincoln Laboratory ETS, New Mexico MPS 48780
2001 09 26.31142 00 16 41.92 +12 57 23.6 19.2   704 – Lincoln Laboratory ETS, New Mexico MPS 48780
2001 09 29.30682 00 14 23.33 +12 31 28.8 20.5   644 – Palomar Mountain/NEAT MPS 37624
2001 09 29.32705 00 14 22.37 +12 31 17.8 19.8   644 – Palomar Mountain/NEAT MPS 37624
2001 09 29.34738 00 14 21.43 +12 31 07.1 20.6   644 – Palomar Mountain/NEAT MPS 37624
2001 10 08.20208 00 07 46.11 +11 10 34.3 20.5 R 850 – Cordell-Lorenz Observatory, Sewanee MPS 37624
2001 10 08.21215 00 07 45.81 +11 10 29.9 19.7 R 850 – Cordell-Lorenz Observatory, Sewanee MPS 37624
2001 10 08.24931 00 07 44.30 +11 10 09.1 20.5 R 850 – Cordell-Lorenz Observatory, Sewanee MPS 37624
2001 10 13.19276 00 04 22.43 +10 24 09.0 18.8 R 699 – Lowell Observatory-LONEOS MPS 43254
2001 10 13.21641 00 04 21.40 +10 23 56.5   699 – Lowell Observatory-LONEOS MPS 43254
2001 10 13.23979 00 04 20.48 +10 23 44.6   699 – Lowell Observatory-LONEOS MPS 43254
2001 10 13.26319 00 04 19.41 +10 23 30.4   699 – Lowell Observatory-LONEOS MPS 43254
2001 10 14.17463 00 03 44.47 +10 15 03.0 19.2   704 – Lincoln Laboratory ETS, New Mexico MPS 37624
2001 10 14.17474 00 03 44.52 +10 15 03.5 18.8   704 – Lincoln Laboratory ETS, New Mexico MPS 37624
2001 10 14.19036 00 03 43.88 +10 14 56.0 19.2   704 – Lincoln Laboratory ETS, New Mexico MPS 37624
2001 10 14.19046 00 03 43.88 +10 14 55.0 19.0   704 – Lincoln Laboratory ETS, New Mexico MPS 37624
2001 10 14.20619 00 03 43.19 +10 14 46.6 19.2   704 – Lincoln Laboratory ETS, New Mexico MPS 37624
2001 10 14.22184 00 03 42.67 +10 14 37.9 19.8   704 – Lincoln Laboratory ETS, New Mexico MPS 37624
2001 10 14.22195 00 03 42.66 +10 14 37.9 19.2   704 – Lincoln Laboratory ETS, New Mexico MPS 37624
2001 10 14.23761 00 03 41.99 +10 14 28.7 19.3   704 – Lincoln Laboratory ETS, New Mexico MPS 37624
2001 10 14.23772 00 03 42.02 +10 14 29.4 19.2   704 – Lincoln Laboratory ETS, New Mexico MPS 37624
2001 10 15.19285 00 03 06.15 +10 05 39.6 19.5   704 – Lincoln Laboratory ETS, New Mexico MPS 37624
2001 10 15.20832 00 03 05.55 +10 05 32.0 19.3   704 – Lincoln Laboratory ETS, New Mexico MPS 37624
2001 10 15.21997 00 03 05.11 +10 05 24.8 19.6   644 – Palomar Mountain/NEAT MPS 43254
2001 10 15.22400 00 03 04.89 +10 05 23.1 19.6   704 – Lincoln Laboratory ETS, New Mexico MPS 37624
2001 10 15.23089 00 03 04.68 +10 05 18.7 19.8   644 – Palomar Mountain/NEAT MPS 43254
2001 10 15.24189 00 03 04.26 +10 05 12.7 19.7   644 – Palomar Mountain/NEAT MPS 43254
2001 10 17.23955 00 01 51.79 +09 46 51.3 18.6   704 – Lincoln Laboratory ETS, New Mexico MPS 39112
2001 10 17.25567 00 01 51.26 +09 46 42.5 19.2   704 – Lincoln Laboratory ETS, New Mexico MPS 39112
2001 10 17.25578 00 01 51.18 +09 46 43.3 19.5   704 – Lincoln Laboratory ETS, New Mexico MPS 39112
2001 10 17.27168 00 01 50.64 +09 46 33.8 19.3   704 – Lincoln Laboratory ETS, New Mexico MPS 39112
2001 10 17.27179 00 01 50.57 +09 46 33.7 19.4   704 – Lincoln Laboratory ETS, New Mexico MPS 39112
2001 10 17.28765 00 01 50.06 +09 46 25.0 19.0   704 – Lincoln Laboratory ETS, New Mexico MPS 39112
2001 10 17.28776 00 01 50.04 +09 46 25.4 19.3   704 – Lincoln Laboratory ETS, New Mexico MPS 39112
2001 10 17.30362 00 01 49.44 +09 46 16.5 19.3   704 – Lincoln Laboratory ETS, New Mexico MPS 39112
2001 10 17.30373 00 01 49.56 +09 46 15.9 19.8   704 – Lincoln Laboratory ETS, New Mexico MPS 39112
2001 11 09.08951 23 53 33.58 +06 44 14.0 20.1 V 691 – Steward Observatory, Kitt Peak-Spacewatch MPS 40207
2001 11 09.11100 23 53 33.41 +06 44 05.3 20.1 V 691 – Steward Observatory, Kitt Peak-Spacewatch MPS 40207
2001 11 09.16793 23 53 32.93 +06 43 43.6 20.1 V 691 – Steward Observatory, Kitt Peak-Spacewatch MPS 40207
2004 03 14.29620 11 45 15.99 -13 05 29.5 18.6   644 – Palomar Mountain/NEAT MPS 101076
2004 03 14.31694 11 45 15.01 -13 05 19.3 18.3   644 – Palomar Mountain/NEAT MPS 101076
2004 03 14.34662 11 45 13.61 -13 05 04.7 18.4   644 – Palomar Mountain/NEAT MPS 101076
2004 03 17.29188 11 42 58.90 -12 39 46.7 18.4   704 – Lincoln Laboratory ETS, New Mexico MPS 101076
2004 03 17.30471 11 42 58.30 -12 39 38.9 18.6   704 – Lincoln Laboratory ETS, New Mexico MPS 101076
2004 03 17.31695 11 42 57.65 -12 39 32.5 18.7   704 – Lincoln Laboratory ETS, New Mexico MPS 101076
